Content
SEND FEEDBACK

Daily
Averages
Monthly
Summary
United Kingdom

BELFAST, NORTHERN IRELAND


Home > Europe > United Kingdom > Northern Ireland
Elevation: 16 feet     Latitude: 54 36N     Longitude: 005 53W

WEATHER
 
SELECT A DAY
Number of Records: 192,886;   Date Range: 7/1/96 - 9/30/14
 
SHARE

PRINT THIS DATA

[ ← Previous Day ]
WEATHER ALMANAC - APRIL 25, 2014
[ Next Day → ]
[ °C ]   °F
Weather ElementAverageHighLow
Temperature51.3 °F53.6 °F (3:20 pm)48.2 °F (6:50 am)
Dewpoint45.9 °F48.2 °F (9:20 pm)44.6 °F (12:50 pm)
Humidity81.9 %94 % (9:20 pm)72 % (3:20 pm)
Barometer29.89 in30.01 in (6:50 am)29.71 in (9:20 pm)
Wind Speed9.9 mph15 mph (6:50 pm)
Weather ElementAverage
Visibility6.2 mi
Wind DirectionENE (81.3 °)

Weather ElementTotal
Precipitation---
Heating Degree Days14.1 (Base 65)
Growing Degree Days0.9 (Base 50)
Averaged from 31 records on April 25, 2014
WEATHER CONDITIONS BREAKOUT
WIND DIRECTION BREAKOUT
WEATHER BY HOUR - APRIL 25, 2014
[ °C ]   °F
Local TimeTemperatureDewpointHumidityBarometerVisibilityWind DirectionWind SpeedGust SpeedPrecipitationEventsConditions
6:50 AM48.2 °F46.4 °F93 %30.01 in5.0 miNorth (10°)4.6 mphThunderstormMostly Cloudy
7:20 AM48.2 °F46.4 °F93 %30.01 in6.2 miVariable3.5 mphMostly Cloudy
7:50 AM50.0 °F46.4 °F87 %29.98 in6.2 miVariable3.5 mphMostly Cloudy
8:20 AM50.0 °F46.4 °F87 %29.98 in6.2 miVariable3.5 mphMostly Cloudy
8:50 AM50.0 °F46.4 °F87 %29.98 in6.2 miEast (80°)6.9 mphMostly Cloudy
9:20 AM50.0 °F46.4 °F87 %29.98 in6.2 miEast (80°)8.1 mphMostly Cloudy
9:50 AM50.0 °F46.4 °F87 %29.98 in6.2 miEast (90°)9.2 mphMostly Cloudy
10:20 AM50.0 °F46.4 °F87 %29.98 in6.2 miEast (80°)6.9 mphMostly Cloudy
10:50 AM50.0 °F46.4 °F87 %29.98 in6.2 miEast (80°)9.2 mphMostly Cloudy
11:20 AM50.0 °F46.4 °F87 %29.98 in6.2 miEast (90°)10.4 mphMostly Cloudy
11:50 AM51.8 °F46.4 °F82 %29.95 in6.2 miEast (100°)11.5 mphMostly Cloudy
12:20 PM51.8 °F46.4 °F82 %29.95 in6.2 miEast (100°)11.5 mphMostly Cloudy
12:50 PM51.8 °F44.6 °F76 %29.95 in6.2 miEast (100°)12.7 mphMostly Cloudy
1:20 PM51.8 °F44.6 °F76 %29.92 in6.2 miESE (110°)12.7 mphMostly Cloudy
1:50 PM51.8 °F46.4 °F82 %29.92 in6.2 miESE (110°)11.5 mphMostly Cloudy
2:20 PM51.8 °F44.6 °F76 %29.92 in6.2 miESE (110°)11.5 mphMostly Cloudy
2:50 PM51.8 °F44.6 °F76 %29.89 in6.2 miEast (100°)10.4 mphMostly Cloudy
3:20 PM53.6 °F44.6 °F72 %29.89 in6.2 miEast (100°)8.1 mphMostly Cloudy
3:50 PM51.8 °F44.6 °F76 %29.89 in6.2 miEast (90°)10.4 mphMostly Cloudy
4:20 PM51.8 °F44.6 °F76 %29.86 in6.2 miEast (90°)12.7 mphMostly Cloudy
4:50 PM53.6 °F46.4 °F77 %29.83 in6.2 miEast (90°)9.2 mphMostly Cloudy
5:20 PM53.6 °F44.6 °F72 %29.83 in6.2 miEast (100°)11.5 mphScattered Clouds
5:50 PM53.6 °F44.6 °F72 %29.80 in6.2 miEast (80°)10.4 mphScattered Clouds
6:20 PM53.6 °F44.6 °F72 %29.80 in6.2 miESE (110°)10.4 mphScattered Clouds
6:50 PM53.6 °F46.4 °F77 %29.77 in6.2 miEast (100°)15.0 mphScattered Clouds
7:20 PM53.6 °F46.4 °F77 %29.77 in6.2 miEast (100°)11.5 mphScattered Clouds
7:50 PM51.8 °F46.4 °F82 %29.77 in6.2 miEast (100°)11.5 mphMostly Cloudy
8:20 PM50.0 °F46.4 °F87 %29.74 in6.2 miEast (80°)13.8 mphRainLight Rain
8:50 PM50.0 °F46.4 °F87 %29.74 in6.2 miEast (80°)12.7 mphRainLight Rain
9:20 PM50.0 °F48.2 °F94 %29.71 in6.2 miEast (80°)10.4 mphRainLight Rain
9:50 PM50.0 °F46.4 °F87 %29.71 in6.2 miEast (80°)12.7 mphMostly Cloudy
Hourly data recorded from EGAC, located miles away from Belfast, Northern Ireland







STORIES FROM OUR PARTNERS